Overview Statistics Trail Chart Weather Telemetry Raw packets
 

This is the latest recevied weather packets stored in our database for station/object TA2LKM-11. If no packets are shown the sender has not sent any weather packets the latest 10 day(s).

<< 8 9 10 11 12 13 14 >>
Time Temp. Humidity Pressure Rain* Wind** Luminosity Snow
1788488021 23.89° C 47% 1012.3 hPa - - - -
1788487985 23.89° C 47% 1012.4 hPa - - - -
1788487083 23.89° C 46% 1012.4 hPa - - - -
1788486183 23.89° C 46% 1012.3 hPa - - - -
1788486094 23.89° C 46% 1012.4 hPa - - - -
1788485193 23.33° C 48% 1012.5 hPa - - - -
1788484292 23.33° C 48% 1012.2 hPa - - - -
1788483392 23.89° C 46% 1012.1 hPa - - - -
1788482491 23.89° C 47% 1012 hPa - - - -
1788481590 24.44° C 47% 1012.1 hPa - - - -
1788480602 23.89° C 48% 1012.1 hPa - - - -
1788479700 23.89° C 48% 1012.1 hPa - - - -
1788478799 23.89° C 50% 1012.3 hPa - - - -
1788477898 23.89° C 49% 1012.2 hPa - - - -
1788476909 24.44° C 48% 1012.3 hPa - - - -
1788476008 24.44° C 49% 1012.1 hPa - - - -
1788475107 24.44° C 49% 1012.3 hPa - - - -
1788474206 24.44° C 48% 1012.3 hPa - - - -
1788473305 24.44° C 47% 1012.4 hPa - - - -
1788466751 26.11° C 36% 1012.1 hPa - - - -
1788465850 26.11° C 35% 1012 hPa - - - -
1788465762 26.11° C 35% 1012 hPa - - - -
1788464861 26.67° C 33% 1012 hPa - - - -
1788463989 26.11° C 32% 1011.9 hPa - - - -
1788463059 26.67° C 30% 1011.9 hPa - - - -

* Rain since midnight (hover to see other rain measurements)
** Current wind speed in m/s (hover to see current wind gust speed)